Wind_Speed
18 18 18 18 18 20 20 21 21 22 22 22 23 23 23 24 23 23 22 20 21 24
16 17 17 18 19 20 20 21 21 21 21 20 20 19 19 19 19 20 18 17 17 18
16 17 18 19 19 20 20 20 20 19 19 18 18 18 17 17 17 17 16 14 16 18
16 17 17 18 18 19 19 19 19 19 17 16 16 15 16 16 16 17 16 17 17 18
18 18 19 19 19 18 18 18 17 17 17 16 16 15 15 15 15 16 17 18 17 17
17 18 18 19 19 19 17 17 17 17 17 16 16 15 14 14 14 14 15 15 15 14
16 17 19 19 18 18 16 16 17 16 16 15 14 14 12 13 13 10 11 13 14 15
16 16 16 14 15 14 15 15 16 15 14 13 12 12 10 10 6 6 7 7 7 8
17 15 13 11 12 12 12 13 13 13 11 9 8 7 6 6 6 7 6 6 7 5
16 15 13 12 12 11 12 12 10 10 8 8 7 6 6 6 6 6 5 5 4 2
16 15 14 13 13 12 12 11 11 9 10 9 9 9 7 6 6 4 4 3 3 3
16 15 14 14 13 13 13 12 12 11 11 11 10 9 6 5 4 4 4 4 4 4
16 15 15 14 13 12 13 13 13 13 13 11 9 7 6 5 5 4 4 4 5 5
16 15 15 14 14 14 15 15 15 14 13 11 10 8 7 6 5 3 5 6 6 7
Wind_Direction
258 258 257 258 260 261 261 263 265 266 268 270 271 272 272 272 272 268 264 259 255 256
255 258 261 262 262 263 265 265 266 266 269 271 273 274 273 272 271 269 263 255 252 254
257 261 264 264 264 263 264 265 267 268 269 270 270 270 270 270 270 269 261 255 255 247
264 266 267 267 265 265 265 266 267 268 267 266 267 269 270 271 269 263 257 247 245 249
270 271 270 270 270 267 265 265 264 263 264 265 267 271 273 274 271 260 253 248 241 243
271 273 273 270 267 266 263 262 261 262 264 265 268 270 274 277 273 261 246 239 238 236
271 275 277 271 266 260 258 257 256 257 258 262 265 265 268 272 276 262 237 236 238 246
274 278 285 276 266 262 253 251 251 252 255 257 260 264 263 255 246 226 227 230 234 222
273 274 278 273 276 276 268 258 255 254 250 245 248 248 231 220 203 201 190 192 191 171
264 259 262 264 263 265 266 257 256 248 228 214 204 185 177 161 163 168 161 175 192 176
258 252 253 256 258 263 255 243 237 225 201 193 181 171 173 172 174 169 177 191 211 229
249 247 250 251 253 247 236 226 218 207 183 176 177 173 176 180 190 198 216 235 246 252
249 247 245 244 242 231 214 210 209 185 181 177 184 186 190 199 210 225 246 257 264 270
245 240 237 232 225 213 205 202 194 190 192 193 196 200 205 214 220 242 260 265 278 285
Height
1523 1523 1523 1523 1523 1523 1522 1521 1521 1520 1520 1519 1519 1518 1516 1515 1515 1514 1513 1512 1513 1513
1519 1519 1519 1519 1518 1517 1517 1516 1516 1515 1515 1514 1513 1512 1511 1509 1509 1508 1507 1508 1508 1509
1514 1514 1515 1515 1513 1513 1512 1512 1512 1510 1510 1509 1508 1507 1506 1505 1504 1503 1503 1504 1504 1505
1510 1509 1509 1509 1508 1507 1506 1506 1506 1506 1504 1504 1504 1502 1502 1501 1500 1500 1499 1501 1500 1501
1506 1506 1504 1504 1504 1502 1502 1501 1501 1501 1500 1499 1499 1498 1497 1496 1495 1495 1495 1496 1496 1497
1501 1501 1500 1499 1499 1498 1496 1496 1497 1496 1497 1495 1495 1494 1492 1491 1492 1490 1491 1491 1492 1493
1496 1495 1495 1494 1493 1494 1492 1492 1493 1492 1492 1492 1491 1491 1487 1489 1488 1487 1488 1489 1487 1488
1492 1491 1489 1487 1489 1488 1488 1488 1489 1489 1488 1487 1487 1488 1485 1486 1485 1484 1486 1486 1487 1485
1487 1486 1486 1485 1485 1484 1485 1486 1486 1484 1484 1484 1485 1484 1484 1486 1484 1484 1483 1485 1487 1485
1483 1483 1483 1481 1482 1482 1484 1484 1483 1482 1482 1483 1483 1484 1485 1484 1484 1484 1483 1485 1488 1483
1479 1479 1479 1479 1478 1478 1479 1480 1481 1481 1481 1483 1481 1483 1484 1484 1485 1484 1484 1486 1485 1484
1475 1475 1474 1474 1474 1476 1477 1478 1479 1480 1480 1481 1482 1483 1484 1485 1485 1484 1485 1485 1484 1485
1471 1471 1471 1472 1472 1474 1475 1477 1478 1478 1480 1480 1482 1483 1483 1484 1485 1484 1484 1483 1483 1483
1467 1467 1468 1469 1470 1472 1473 1475 1476 1478 1479 1480 1481 1483 1483 1483 1483 1482 1483 1482 1481 1480